Regional Weather Roundup
Issued by NWS

Home | Current Version | Previous Version | Text Only | Print | Product List | Glossary Off
Versions: 1 2 3 4 5 6 7 8 9 10 11 12 13 14 15 16 17 18 19 20 21 22 23 24 25 26 27 28 29 30 31 32 33 34 35 36 37 38 39 40 41 42 43 44 45 46 47 48 49 50

178
ASUS43 KLOT 250008
RWRIL

ILLINOIS REGIONAL WEATHER ROUNDUP
NATIONAL WEATHER SERVICE CHICAGO/ROMEOVILLE IL
700 PM CDT MON APR 24 2017

NOTE: "FAIR" INDICATES FEW OR NO CLOUDS BELOW 12,000 FEET WITH NO
SIGNIFICANT WEATHER AND/OR OBSTRUCTIONS TO VISIBILITY.

* THESE STATIONS ARE NOT UNDER NWS QUALITY CONTROL. THEY ALSO MAY NOT
  REPORT WEATHER SUCH AS PRECIPITATION OR FOG.

ILZ001-002-007-009-015-016-024-250100-
NORTHWEST ILLINOIS

CITY           SKY/WX    TMP DP  RH WIND       PRES   REMARKS
MOLINE         CLEAR     73  27  18 S10       29.68S
6HR MIN TEMP:  73; 6HR MAX TEMP:  77;

STERLING*      CLOUDY    74  28  18 SE12G20   29.71F
SAVANNA*       CLEAR     73  25  16 SE13      29.70F
$$

ILZ003-004-008-010-011-017-018-250100-
NORTH CENTRAL ILLINOIS

CITY           SKY/WX    TMP DP  RH WIND       PRES   REMARKS
ROCKFORD       MOCLDY    72  26  18 SE16      29.75F
6HR MIN TEMP:  72; 6HR MAX TEMP:  76;

FREEPORT*      CLEAR     70  30  22 SE16      29.74F
ROCHELLE*      PTCLDY    71  29  21 SE18      29.74F
DE KALB*       PTCLDY    70  31  24 SE13      29.76F
PERU*          CLEAR     73  24  16 SE13      29.74F
$$

ILZ005-006-012>014-019>023-250100-
NORTHEAST ILLINOIS

CITY           SKY/WX    TMP DP  RH WIND       PRES   REMARKS
CHICAGO-OHARE  MOCLDY    67  30  25 E9        29.79F
6HR MIN TEMP:  67; 6HR MAX TEMP:  73;

CHICAGO-MIDWAY MOCLDY    66  31  27 E9        29.79F
6HR MIN TEMP:  66; 6HR MAX TEMP:  72;

AURORA         PTCLDY    69  32  25 SE9       29.77F
6HR MIN TEMP:  69; 6HR MAX TEMP:  75;

LANSING*       CLEAR     60  40  47 N8        29.80S
JOLIET*        CLEAR     71  31  22 E8        29.78S
WAUKEGAN       PTCLDY    56  34  43 E6        29.80F
6HR MIN TEMP:  56; 6HR MAX TEMP:  65;

DUPAGE AIRPORT CLEAR     69  31  24 E10       29.77F
6HR MIN TEMP:  68; 6HR MAX TEMP:  74;

KANKAKEE*      CLEAR     73  32  22 SE10      29.78F
WHEELING       PTCLDY    62  31  31 E5        29.81F
6HR MIN TEMP:  62; 6HR MAX TEMP:  71;

MORRIS*        CLEAR     71  24  17 CALM      29.76S
ROMEOVILLE*    CLEAR     67  40  36 E10       29.78F
NORTHERLY ISL    N/A     55  38  52 N6          N/A
$$

LMZ740>746-250100-
SOUTHERN LAKE MICHIGAN

STATION/POSITION SKY/WX   TEMP    WIND        PRES    VSBY  WAVE
                          AIR SEA DIR/SP/G                  HT/PER
                          (F)     (DEG/KT/KT) (MB)    (MI)  (FT/S)
SOUTHERN BUOY              50 44   30/  6/  6 1011.0          1/ 5
HARRISON CRIB              56     360/  6/  7   N/A
BURNHAM HARBOR             55     340/  3/  7   N/A
CALUMET HARBOR             56     340/  4/  6 1009.0F
BURNS HARBOR               59      80/  5/  9 1009.5F
MICHIGAN CITY              71      90/ 10/ 13   N/A
ST. JOSEPH                 65 52  140/ 12/ 14 1009.5          1/ 2
$$

ILZ025>027-034>036-040-047-049-050-058-095>099-250100-
WEST-CENTRAL ILLINOIS

CITY           SKY/WX    TMP DP  RH WIND       PRES   REMARKS
QUINCY         CLEAR     72  26  18 SE13      29.67F
GALESBURG*     CLEAR     72  31  21 SE7       29.68F
MACOMB*        CLEAR     74  23  15 SE17      29.70F
JACKSONVILLE*  PTCLDY    73  29  20 SE8       29.71F
PITTSFIELD*    CLEAR     74  29  19 SE10      29.71F
$$

ILZ028>032-037-038-041>044-048-051>054-059>061-250100-
CENTRAL ILLINOIS

CITY           SKY/WX    TMP DP  RH WIND       PRES   REMARKS
PONTIAC        CLEAR     73  27  18 SE12      29.77S
BLOOMINGTON    CLEAR     71  27  19 SE13      29.76F
DECATUR        CLEAR     71  34  25 SE7       29.74F
PEORIA         CLOUDY    74  25  16 SE10      29.71F
6HR MIN TEMP:  73; 6HR MAX TEMP:  77;

LACON*         PTCLDY    74  30  20 SE12      29.71F
LINCOLN*       CLEAR     75  30  19 SE8       29.73F
SPRINGFIELD    CLEAR     74  31  20 SE8       29.72F
6HR MIN TEMP:  74; 6HR MAX TEMP:  80;

TAYLORVILLE    CLEAR     71  31  22 S3        29.75S
6HR MIN TEMP:  71; 6HR MAX TEMP:  77;

$$

ILZ033-039-045-046-055>057-062-063-250100-
EAST-CENTRAL ILLINOIS

CITY           SKY/WX    TMP DP  RH WIND       PRES   REMARKS
CHAMPAIGN      CLEAR     72  30  21 E12       29.75F
RANTOUL*       CLEAR     74  31  20 SE10      29.76S
MATTOON        CLEAR     70  37  29 SE7       29.74S
PARIS*         CLEAR     73  38  28 E6        29.76S
$$

ILZ079-100>102-250100-
SOUTHWEST ILLINOIS

CITY           SKY/WX    TMP DP  RH WIND       PRES   REMARKS
ALTON          CLEAR     68  37  32 SE7       29.73F
BELLEVILLE     CLEAR     71  43  35 CALM      29.72F
CAHOKIA*       CLEAR     73  37  27 SE6       29.73F
SPARTA*        CLEAR     70  42  36 CALM      29.76S
$$

ILZ064>066-069>071-074>076-080>082-084>086-088>090-092>094-250100-
SOUTH-CENTRAL ILLINOIS

CITY           SKY/WX    TMP DP  RH WIND       PRES   REMARKS
CARBONDALE     CLEAR     70  50  49 SE3       29.74F
6HR MIN TEMP:  70; 6HR MAX TEMP:  75;

CAIRO*         CLEAR     73  50  44 CALM      29.73S
EFFINGHAM*     CLEAR     73  41  31 E7        29.76S
MARION         PTCLDY    73  45  35 E8        29.75S
MT. VERNON     CLEAR     73  41  31 SE3       29.75S
CENTRALIA*     CLEAR     73  42  32 SE3       29.74S
SALEM*         CLEAR     75  31  20 CALM      29.75S
METROPOLIS*    CLEAR     74  51  44 CALM      29.74F HAZE
$$

ILZ067-068-072-073-078-083-087-091-250100-
SOUTHEAST ILLINOIS

CITY           SKY/WX    TMP DP  RH WIND       PRES   REMARKS
LAWRENCEVILLE  CLEAR     75  39  27 E5        29.74F
FLORA*         CLEAR     73  42  32 SE3       29.74S
FAIRFIELD*     CLEAR     73  40  29 CALM      29.73S
HARRISBURG*    CLEAR     71  50  46 E5        29.74F
ROBINSON*      CLEAR     73  41  31 E5        29.75F
CARMI*         CLEAR     72  50  45 SE5       29.74S
$$

ABBREVIATIONS USED IN REMARKS
   TC - TEMPERATURE IN CELSIUS
  WCI - WIND CHILL INDEX
   HX - HEAT INDEX
  VSB - VISIBILITY
$$





USA.gov is the U.S. government's official web portal to all federal, state and local government web resources and services.